Weather History for South Hill, VA

Change the Weather History Date:

Thursday, March 21, 2013

  Actual Average (KEMV) Record (KEMV)
Temperature  
Mean Temperature 36 °F -  
Max Temperature 44 °F 59 °F 77 °F (2012)
Min Temperature 28 °F 34 °F 20 °F (1986)
Degree Days  
Heating Degree Days 29    
Moisture  
Dew Point 20 °F    
Average Humidity 55    
Maximum Humidity 87    
Minimum Humidity 31    
Precipitation  
Precipitation 0.00 in - - ()
Sea Level Pressure  
Sea Level Pressure 29.85 in    
Wind  
Wind Speed 6 mph (NW)    
Max Wind Speed 14 mph    
Max Gust Speed 24 mph    
Visibility 10 miles    
Events Rain , Snow    
Averages and records for this station are not official NWS values.
T = Trace of Precipitation, MM = Missing Value Source: NWS Daily Summary

Daily Weather History Graph

Daily Weather History Graph

Search for Another Location

Airport:

Trip Planner

Search our weather history database for the weather conditions in past years. The results will help you decide how hot, cold, wet, or windy it might be!

Date:

Astronomy

Mar. 21, 2013 Rise Set
Actual Time 7:13 AM EDT 7:25 PM EDT
Civil Twilight 6:48 AM EDT 7:50 PM EDT
Nautical Twilight 6:18 AM EDT 8:21 PM EDT
Astronomical Twilight 5:47 AM EDT 8:51 PM EDT
Moon 2:00 PM EDT (3/21) 3:26 AM EDT (3/21)
Length of Visible Light 13h 02m
Length of Day
12h 11m
Waxing Gibbous, 68% of the Moon is Illuminated
Mar 21
Waxing Gibbous
Mar 27
Full
Apr 3
Last Quarter
Apr 10
New
Apr 18
First Quarter

Hourly Weather History & Observations

Time (EDT) Temp. Windchill Dew Point Humidity Pressure Visibility Wind Dir Wind Speed Gust Speed Precip Events Conditions
12:15 AM 33.8 °F - 26.6 °F 75% 29.83 in 10.0 mi Calm Calm - N/A   Scattered Clouds
12:35 AM 33.8 °F - 28.4 °F 81% 29.82 in 10.0 mi Calm Calm - N/A   Overcast
12:55 AM 33.8 °F - 28.4 °F 81% 29.81 in 10.0 mi Calm Calm - N/A   Mostly Cloudy
1:15 AM 30.2 °F - 26.6 °F 86% 29.80 in 10.0 mi Calm Calm - N/A   Scattered Clouds
1:35 AM 32.0 °F - 26.6 °F 80% 29.78 in 10.0 mi Calm Calm - N/A   Scattered Clouds
1:55 AM 37.4 °F 33.8 °F 24.8 °F 60% 29.78 in 10.0 mi WSW 4.6 mph - N/A   Clear
2:15 AM 39.2 °F 35.9 °F 24.8 °F 56% 29.77 in 10.0 mi West 4.6 mph - N/A   Clear
2:35 AM 41.0 °F 39.0 °F 24.8 °F 53% 29.77 in 10.0 mi WSW 3.5 mph - N/A   Scattered Clouds
2:55 AM 42.8 °F 41.1 °F 26.6 °F 53% 29.76 in 10.0 mi West 3.5 mph - N/A   Mostly Cloudy
3:15 AM 44.6 °F 40.7 °F 28.4 °F 53% 29.78 in 10.0 mi West 6.9 mph 21.9 mph N/A   Overcast
3:35 AM 44.6 °F 42.2 °F 28.4 °F 53% 29.78 in 10.0 mi WNW 4.6 mph - N/A Rain Light Rain
3:55 AM 44.6 °F 42.2 °F 24.8 °F 46% 29.79 in 10.0 mi NW 4.6 mph - N/A   Overcast
4:35 AM 42.8 °F 41.1 °F 24.8 °F 49% 29.78 in 10.0 mi NW 3.5 mph - N/A   Mostly Cloudy
4:55 AM 41.0 °F 39.0 °F 24.8 °F 53% 29.78 in 10.0 mi NW 3.5 mph - N/A   Overcast
5:15 AM 41.0 °F 37.1 °F 24.8 °F 53% 29.78 in 10.0 mi NNW 5.8 mph - N/A   Overcast
5:35 AM 39.2 °F 33.0 °F 26.6 °F 61% 29.79 in 10.0 mi North 9.2 mph - N/A   Overcast
5:55 AM 37.4 °F 29.8 °F 26.6 °F 65% 29.80 in 10.0 mi North 11.5 mph 20.7 mph N/A   Overcast
6:15 AM 37.4 °F 29.8 °F 26.6 °F 65% 29.81 in 10.0 mi North 11.5 mph - N/A   Overcast
6:35 AM 35.6 °F 28.6 °F 26.6 °F 70% 29.81 in 10.0 mi North 9.2 mph - N/A   Overcast
6:55 AM 35.6 °F 29.2 °F 26.6 °F 70% 29.81 in 10.0 mi North 8.1 mph - N/A   Overcast
7:15 AM 33.8 °F 25.8 °F 26.6 °F 75% 29.82 in 10.0 mi North 10.4 mph - N/A   Overcast
7:35 AM 33.8 °F 25.8 °F 26.6 °F 75% 29.82 in 10.0 mi North 10.4 mph - N/A   Mostly Cloudy
7:55 AM 35.6 °F 29.9 °F 26.6 °F 70% 29.81 in 10.0 mi North 6.9 mph - N/A   Overcast
8:15 AM 35.6 °F 27.5 °F 26.6 °F 70% 29.81 in 10.0 mi North 11.5 mph - N/A   Overcast
8:35 AM 35.6 °F 28.0 °F 26.6 °F 70% 29.82 in 10.0 mi North 10.4 mph 16.1 mph N/A   Overcast
8:55 AM 35.6 °F 26.6 °F 26.6 °F 70% 29.82 in 10.0 mi North 13.8 mph 18.4 mph N/A   Overcast
9:15 AM 35.6 °F 28.0 °F 26.6 °F 70% 29.83 in 10.0 mi North 10.4 mph 16.1 mph N/A   Overcast
9:35 AM 35.6 °F 29.2 °F 26.6 °F 70% 29.84 in 10.0 mi North 8.1 mph 21.9 mph N/A   Overcast
9:55 AM 33.8 °F 24.3 °F 28.4 °F 81% 29.85 in 2.5 mi North 13.8 mph 23.0 mph N/A   Haze
10:15 AM 33.8 °F 25.8 °F 30.2 °F 87% 29.85 in 3.0 mi North 10.4 mph 16.1 mph N/A Snow Light Snow
10:35 AM 33.8 °F 24.8 °F 28.4 °F 81% 29.85 in 7.0 mi North 12.7 mph 17.3 mph N/A Snow Light Snow
10:55 AM 33.8 °F 25.3 °F 28.4 °F 81% 29.85 in 10.0 mi North 11.5 mph - N/A Snow Light Snow
11:15 AM 33.8 °F 25.8 °F 26.6 °F 75% 29.85 in 10.0 mi North 10.4 mph 17.3 mph N/A   Overcast
11:35 AM 35.6 °F 28.0 °F 26.6 °F 70% 29.85 in 10.0 mi NNW 10.4 mph 18.4 mph N/A   Overcast
11:55 AM 35.6 °F 32.8 °F 24.8 °F 65% 29.85 in 10.0 mi NW 3.5 mph - N/A Rain Light Rain
12:15 PM 37.4 °F 32.1 °F 24.8 °F 60% 29.84 in 10.0 mi WNW 6.9 mph 17.3 mph N/A   Overcast
12:35 PM 37.4 °F 32.1 °F 24.8 °F 60% 29.84 in 10.0 mi NW 6.9 mph - N/A   Overcast
12:55 PM 35.6 °F 31.7 °F 21.2 °F 56% 29.84 in 10.0 mi NW 4.6 mph - N/A   Overcast
1:15 PM 37.4 °F 32.8 °F 19.4 °F 48% 29.83 in 10.0 mi WNW 5.8 mph - N/A   Overcast
1:35 PM 39.2 °F 34.2 °F 21.2 °F 49% 29.83 in 10.0 mi NW 6.9 mph - N/A   Overcast
1:55 PM 39.2 °F 33.0 °F 19.4 °F 45% 29.82 in 10.0 mi WNW 9.2 mph - N/A   Overcast
2:15 PM 39.2 °F 31.2 °F 17.6 °F 42% 29.81 in 10.0 mi West 13.8 mph 24.2 mph N/A   Mostly Cloudy
2:35 PM 42.8 °F 38.6 °F 17.6 °F 36% 29.80 in 10.0 mi West 6.9 mph - N/A   Mostly Cloudy
2:55 PM 42.8 °F 36.2 °F 14.0 °F 31% 29.80 in 10.0 mi WNW 12.7 mph 24.2 mph N/A   Scattered Clouds
3:15 PM 42.8 °F 36.6 °F 14.0 °F 31% 29.80 in 10.0 mi WNW 11.5 mph 19.6 mph N/A   Scattered Clouds
3:35 PM 42.8 °F 37.5 °F 15.8 °F 34% 29.80 in 10.0 mi NW 9.2 mph 20.7 mph N/A   Mostly Cloudy
3:55 PM 39.2 °F 31.6 °F 14.0 °F 36% 29.81 in 10.0 mi WNW 12.7 mph 17.3 mph N/A   Mostly Cloudy
4:15 PM 39.2 °F 33.0 °F 15.8 °F 39% 29.82 in 10.0 mi WNW 9.2 mph 16.1 mph N/A   Mostly Cloudy
4:35 PM 39.2 °F 34.2 °F 14.0 °F 36% 29.82 in 10.0 mi West 6.9 mph 19.6 mph N/A   Mostly Cloudy
4:55 PM 39.2 °F 32.0 °F 14.0 °F 36% 29.84 in 10.0 mi WNW 11.5 mph 19.6 mph N/A   Mostly Cloudy
5:15 PM 39.2 °F 31.2 °F 12.2 °F 33% 29.84 in 10.0 mi West 13.8 mph 21.9 mph N/A   Mostly Cloudy
5:35 PM 37.4 °F 30.3 °F 12.2 °F 36% 29.85 in 10.0 mi West 10.4 mph 16.1 mph N/A   Mostly Cloudy
5:55 PM 37.4 °F 28.9 °F 12.2 °F 36% 29.86 in 10.0 mi West 13.8 mph 23.0 mph N/A   Scattered Clouds
6:15 PM 37.4 °F 29.8 °F 12.2 °F 36% 29.88 in 10.0 mi West 11.5 mph 19.6 mph N/A   Mostly Cloudy
6:35 PM 37.4 °F 30.3 °F 10.4 °F 33% 29.88 in 10.0 mi West 10.4 mph 21.9 mph N/A   Mostly Cloudy
6:55 PM 37.4 °F 30.3 °F 12.2 °F 36% 29.89 in 10.0 mi West 10.4 mph 20.7 mph N/A   Scattered Clouds
7:15 PM 35.6 °F 28.6 °F 12.2 °F 38% 29.90 in 10.0 mi WNW 9.2 mph - N/A   Clear
7:35 PM 35.6 °F 31.7 °F 12.2 °F 38% 29.91 in 10.0 mi WNW 4.6 mph - N/A   Clear
7:55 PM 33.8 °F 28.6 °F 12.2 °F 41% 29.92 in 10.0 mi West 5.8 mph - N/A   Clear
8:15 PM 33.8 °F 27.7 °F 12.2 °F 41% 29.93 in 10.0 mi West 6.9 mph - N/A   Clear
8:35 PM 33.8 °F 28.6 °F 12.2 °F 41% 29.94 in 10.0 mi West 5.8 mph - N/A   Clear
8:55 PM 33.8 °F 29.6 °F 12.2 °F 41% 29.95 in 10.0 mi WNW 4.6 mph - N/A   Clear
9:15 PM 32.0 °F 27.5 °F 10.4 °F 41% 29.96 in 10.0 mi WNW 4.6 mph - N/A   Clear
9:35 PM 32.0 °F 26.4 °F 12.2 °F 44% 29.97 in 10.0 mi WNW 5.8 mph - N/A   Clear
9:55 PM 32.0 °F 27.5 °F 12.2 °F 44% 29.98 in 10.0 mi WNW 4.6 mph - N/A   Clear
10:15 PM 30.2 °F 25.4 °F 12.2 °F 47% 29.98 in 10.0 mi WNW 4.6 mph - N/A   Clear
10:35 PM 30.2 °F 26.7 °F 12.2 °F 47% 29.98 in 10.0 mi WNW 3.5 mph - N/A   Clear
10:55 PM 30.2 °F 26.7 °F 12.2 °F 47% 29.99 in 10.0 mi West 3.5 mph - N/A   Clear
11:15 PM 30.2 °F 25.4 °F 12.2 °F 47% 29.99 in 10.0 mi West 4.6 mph - N/A   Clear
11:35 PM 28.4 °F 24.6 °F 12.2 °F 51% 30.00 in 10.0 mi West 3.5 mph - N/A   Clear
11:55 PM 28.4 °F 23.3 °F 12.2 °F 51% 30.00 in 10.0 mi WNW 4.6 mph - N/A   Clear